Date String (YYYY-MM-DD hh:mm:ss) UTC,Instrument flags,Ambient pressure (hPa),Sample flow (lpm),Bypass flow (lpm),Sample temperature (°C),Ambient temperature (°C),ASC tube jacket temperature (°C),LED temperature (°C),Box temperature (°C),Sample RH (%),Span deviation,Mass concentration (μg/m³),Mass concentration (μg/m³),Mass concentration (μg/m³)
DateTimeUTC,F1_M11,P_M11,Q1_M11,Q2_M11,T1_M11,T2_M11,T3_M11,T4_M11,T5_M11,U1_M11,ZSPAN_M11,X0_M11,X2_M11,X1_M11
2022-12-15 19:00:00,,0820.2,4.95,0.00,22.2,20.6,00.0,31.1,23.8,07.5,0000.0,0012.52,0004.99,0004.45
2022-12-15 19:01:00,,0820.2,5.05,0.00,22.1,20.5,00.0,31.1,23.8,07.5,0000.0,0013.54,0005.02,0004.45
2022-12-15 19:02:00,,0820.2,4.96,0.00,22.1,20.4,00.0,31.1,23.7,07.5,0000.0,0013.56,0005.08,0004.47
2022-12-15 19:03:00,,0820.2,5.03,0.00,22.1,20.2,00.0,31.1,23.7,07.5,0000.0,0012.76,0005.13,0004.50
2022-12-15 19:04:00,,0820.2,4.96,0.00,22.0,20.1,00.0,31.0,23.6,07.6,0000.0,0013.28,0005.19,0004.53
2022-12-15 19:05:00,,0820.2,5.04,0.00,22.0,20.1,00.0,31.0,23.6,07.6,0000.0,0013.23,0005.24,0004.56
2022-12-15 19:06:00,,0820.2,4.98,0.00,21.9,20.1,00.0,31.0,23.5,07.7,0000.0,0013.32,0005.31,0004.59
2022-12-15 19:07:00,,0820.2,5.00,0.00,22.0,20.9,00.0,30.9,23.7,07.7,0000.0,0013.74,0005.38,0004.61
2022-12-15 19:08:00,,0820.2,4.99,0.00,22.1,22.1,00.0,30.9,24.0,07.6,0000.0,0013.45,0005.42,0004.61
2022-12-15 19:09:00,,0820.2,5.01,0.00,22.2,22.2,00.0,30.9,24.1,07.6,0000.0,0013.00,0005.45,0004.61
2022-12-15 19:10:00,,0820.2,5.01,0.00,22.2,21.7,00.0,31.0,24.1,07.5,0000.0,0012.54,0005.45,0004.61
2022-12-15 19:11:00,,0820.0,4.99,0.00,22.2,21.3,00.0,31.0,23.9,07.6,0000.0,0012.57,0005.46,0004.60
2022-12-15 19:12:00,,0820.0,5.00,0.00,22.1,21.0,00.0,31.0,23.8,07.6,0000.0,0012.17,0005.50,0004.62
2022-12-15 19:13:00,,0819.9,4.99,0.00,22.1,20.7,00.0,31.0,23.8,07.7,0000.0,0012.41,0005.50,0004.63
2022-12-15 19:14:00,,0819.9,5.04,0.00,22.1,20.5,00.0,31.0,23.7,07.8,0000.0,0012.50,0005.48,0004.64
2022-12-15 19:15:00,,0819.9,4.95,0.00,22.0,20.3,00.0,31.0,23.6,08.0,0000.0,0012.32,0005.50,0004.65
2022-12-15 19:16:00,,0819.9,5.05,0.00,22.0,20.2,00.0,31.0,23.6,08.3,0000.0,0014.00,0005.63,0004.69
2022-12-15 19:17:00,,0819.9,4.98,0.00,21.9,20.3,00.0,30.9,23.6,08.4,0000.0,0015.41,0005.71,0004.71
2022-12-15 19:18:00,,0819.9,5.01,0.00,22.0,21.4,00.0,30.9,23.9,08.4,0000.0,0015.73,0005.78,0004.76
2022-12-15 19:19:00,,0819.9,4.99,0.00,22.2,22.3,00.0,30.9,24.1,08.3,0000.0,0017.32,0005.87,0004.81
2022-12-15 19:20:00,,0819.9,5.00,0.00,22.2,22.1,00.0,31.0,24.1,08.3,0000.0,0018.93,0005.97,0004.86
2022-12-15 19:21:00,,0819.9,5.00,0.00,22.2,21.7,00.0,31.0,24.0,08.2,0000.0,0019.32,0006.06,0004.89
2022-12-15 19:22:00,,0819.9,5.00,0.00,22.2,21.3,00.0,31.0,24.0,08.3,0000.0,0019.04,0006.13,0004.94
2022-12-15 19:23:00,,0819.9,5.00,0.00,22.2,21.0,00.0,31.0,23.9,08.5,0000.0,0019.17,0006.18,0004.99
2022-12-15 19:24:00,,0819.9,5.02,0.00,22.2,20.8,00.0,31.0,23.9,08.6,0000.0,0021.11,0006.24,0005.03
2022-12-15 19:25:00,,0819.9,4.98,0.00,22.1,20.7,00.0,31.0,23.8,08.5,0000.0,0021.93,0006.34,0005.06
2022-12-15 19:26:00,,0819.9,5.04,0.00,22.1,20.6,00.0,31.0,23.8,08.6,0000.0,0023.01,0006.45,0005.07
2022-12-15 19:27:00,,0819.9,4.97,0.00,22.1,20.5,00.0,31.0,23.8,08.6,0000.0,0021.93,0006.43,0005.06
2022-12-15 19:28:00,,0820.0,5.01,0.00,22.1,20.5,00.0,31.0,23.8,08.6,0000.0,0022.33,0006.40,0005.05
2022-12-15 19:29:00,,0820.0,5.02,0.00,22.0,20.4,00.0,31.0,23.7,08.6,0000.0,0022.73,0006.37,0005.03
2022-12-15 19:30:00,,0820.0,4.98,0.00,22.0,20.3,00.0,31.0,23.7,08.6,0000.0,0022.17,0006.33,0005.01
2022-12-15 19:31:00,,0820.0,4.99,0.00,22.0,21.1,00.0,30.9,23.9,08.6,0000.0,0021.07,0006.27,0005.01
2022-12-15 19:32:00,,0820.0,5.01,0.00,22.2,22.2,00.0,30.9,24.1,08.6,0000.0,0021.82,0006.25,0004.99
2022-12-15 19:33:00,,0820.1,4.98,0.00,22.3,22.3,00.0,31.0,24.2,08.7,0000.0,0022.05,0006.21,0004.98
2022-12-15 19:34:00,,0820.1,5.01,0.00,22.3,21.9,00.0,31.0,24.2,08.7,0000.0,0021.75,0006.18,0004.96
2022-12-15 19:35:00,,0820.1,5.00,0.00,22.3,21.6,00.0,31.0,24.1,08.5,0000.0,0019.98,0006.15,0004.94
2022-12-15 19:36:00,,0820.0,4.99,0.00,22.3,21.3,00.0,31.1,24.0,08.5,0000.0,0019.72,0006.09,0004.92
2022-12-15 19:37:00,,0820.1,5.02,0.00,22.3,21.1,00.0,31.1,24.0,08.7,0000.0,0018.77,0005.98,0004.90
2022-12-15 19:38:00,,0820.0,4.99,0.00,22.2,20.9,00.0,31.1,24.0,08.6,0000.0,0018.19,0005.88,0004.88
2022-12-15 19:39:00,,0820.1,5.00,0.00,22.2,20.8,00.0,31.1,23.9,08.5,0000.0,0016.75,0005.84,0004.86
2022-12-15 19:40:00,,0820.1,5.00,0.00,22.2,20.7,00.0,31.1,23.9,08.6,0000.0,0015.91,0005.83,0004.84
2022-12-15 19:41:00,,0820.1,4.98,0.00,22.2,20.7,00.0,31.1,23.9,08.5,0000.0,0015.37,0005.76,0004.79
2022-12-15 19:42:00,,0820.0,5.04,0.00,22.2,20.6,00.0,31.1,23.8,08.5,0000.0,0015.78,0005.75,0004.76
2022-12-15 19:43:00,,0820.0,4.96,0.00,22.1,20.6,00.0,31.1,23.9,08.6,0000.0,0014.96,0005.71,0004.72
2022-12-15 19:44:00,,0820.0,5.04,0.00,22.1,20.5,00.0,31.0,23.8,08.5,0000.0,0015.09,0005.70,0004.69
2022-12-15 19:45:00,,0820.0,4.95,0.00,22.1,20.5,00.0,31.0,23.8,08.5,0000.0,0014.97,0005.67,0004.65
2022-12-15 19:46:00,,0820.1,5.05,0.00,22.1,20.4,00.0,31.0,23.7,08.4,0000.0,0014.58,0005.60,0004.61
2022-12-15 19:47:00,,0820.1,4.96,0.00,22.1,21.3,00.0,31.0,23.9,08.5,0000.0,0014.85,0005.55,0004.57
2022-12-15 19:48:00,,0820.1,5.01,0.00,22.3,22.4,00.0,30.9,24.2,08.3,0000.0,0014.61,0005.55,0004.53
2022-12-15 19:49:00,,0820.0,5.02,0.00,22.3,22.5,00.0,31.0,24.3,08.2,0000.0,0016.32,0005.51,0004.51
2022-12-15 19:50:00,,0820.0,4.95,0.00,22.4,22.0,00.0,31.1,24.2,08.2,0000.0,0019.05,0005.47,0004.48
2022-12-15 19:51:00,,0820.0,5.04,0.00,22.3,21.6,00.0,31.1,24.1,08.3,0000.0,0019.04,0005.40,0004.45
2022-12-15 19:52:00,,0820.0,4.95,0.00,22.3,21.3,00.0,31.1,24.0,08.1,0000.0,0019.39,0005.39,0004.44
2022-12-15 19:53:00,,0820.0,5.04,0.00,22.3,20.9,00.0,31.1,23.9,08.1,0000.0,0019.45,0005.39,0004.43
2022-12-15 19:54:00,,0820.0,4.96,0.00,22.2,20.7,00.0,31.1,23.8,08.1,0000.0,0021.12,0005.42,0004.42
2022-12-15 19:55:00,,0820.0,5.04,0.00,22.2,20.5,00.0,31.1,23.8,08.1,0000.0,0021.80,0005.39,0004.41
2022-12-15 19:56:00,,0819.9,4.98,0.00,22.1,20.4,00.0,31.1,23.7,08.2,0000.0,0022.38,0005.37,0004.40
2022-12-15 19:57:00,,0819.9,4.98,0.00,22.1,20.3,00.0,31.1,23.7,08.2,0000.0,0022.40,0005.40,0004.39
2022-12-15 19:58:00,,0819.9,4.99,0.00,22.1,20.9,00.0,31.0,23.8,08.2,0000.0,0022.44,0005.45,0004.38
2022-12-15 19:59:00,,0819.9,5.04,0.00,22.2,22.1,00.0,31.0,24.1,08.1,0000.0,0022.27,0005.41,0004.37
